Namest Nad Oslav, Czech Republic

4:27 PM CEST on October 15, 2019 (GMT +0200)
Namest

Weather History for LKNA - August, 2019

Change the Weather History Date:

Thursday, August 22, 2019

  Actual Average (WUND) Record (WUND)
Temperature  
Mean Temperature 61 °F -  
Max Temperature 71 °F - - (-1)
Min Temperature 51 °F - - (-1)
Degree Days  
Heating Degree Days 4    
Growing Degree Days 11 (Base 50)    
Moisture  
Dew Point 53 °F    
Average Humidity 71    
Maximum Humidity 94    
Minimum Humidity 47    
Precipitation  
Precipitation 0.00 in - - ()
Sea Level Pressure  
Sea Level Pressure 30.31 in    
Wind  
Wind Speed 7 mph ()    
Max Wind Speed 14 mph    
Max Gust Speed -    
Visibility 13.0 miles    
Events      
Averages and records for this station are not official NWS values.
T = Trace of Precipitation, MM = Missing Value Source: Averaged Metar Reports

Daily Weather History Graph

Daily Weather History Graph

Search for Another Location

Airport or City:

Astronomy

Aug. 22, 2019 Rise Set
Actual Time 5:56 AM CEST 7:59 PM CEST
Civil Twilight 5:22 AM CEST 8:33 PM CEST
Nautical Twilight 4:39 AM CEST 9:15 PM CEST
Astronomical Twilight 3:51 AM CEST 10:03 PM CEST
Moon 11:04 PM CEST (8/22) 12:47 PM CEST (8/22)
Length of Visible Light 15h 10m
Length of Day
14h 02m
Waning Gibbous, 62% of the Moon is Illuminated
Aug 22
Waning Gibbous
Aug 23
Last Quarter
Aug 30
New
Sep 6
First Quarter
Sep 14
Full

Hourly Weather History & Observations

Time (CEST) Temp. Dew Point Humidity Pressure Visibility Wind Dir Wind Speed Gust Speed Precip Events Conditions
12:00 AM 56 °F 52 °F 80% 30.38 in 19 mi NNW 6.7 mph - -  
12:00 AM 55.4 °F 51.8 °F 88% 30.36 in - NNW 8.1 mph - N/A   Clear
1:00 AM 53.6 °F 51.8 °F 94% 30.36 in - North 5.8 mph - N/A   Clear
2:00 AM 54 °F 51 °F 86% 30.37 in 19 mi NNW 8.9 mph - -   Clear
2:00 AM 53.6 °F 51.8 °F 94% 30.36 in - NNW 8.1 mph - N/A   Clear
3:00 AM 53 °F 50 °F 85% 30.35 in 19 mi NNW 8.9 mph - -   Clear
3:00 AM 51.8 °F 50.0 °F 94% 30.33 in - NNW 6.9 mph - N/A   Clear
4:00 AM 51.8 °F 50.0 °F 94% 30.33 in - North 6.9 mph - N/A   Clear
5:00 AM 53 °F 49 °F 84% 30.34 in 19 mi NNW 8.9 mph - -   Clear
5:00 AM 53.6 °F 50.0 °F 88% 30.33 in - NNW 6.9 mph - N/A   Clear
6:00 AM 53 °F 50 °F 84% 30.33 in 19 mi NNW 11.2 mph - -   Clear
7:00 AM 54 °F 51 °F 85% 30.32 in 19 mi NNW 8.9 mph - -   Clear
7:00 AM 55.4 °F 51.8 °F 88% 30.30 in - NNW 8.1 mph - N/A   Clear
8:00 AM 57.2 °F 51.8 °F 82% 30.30 in - NNE 8.1 mph - N/A   Clear
9:00 AM 60.8 °F 53.6 °F 77% 30.33 in 6.2 mi NE 12.7 mph - N/A   Mostly Cloudy
10:00 AM 62 °F 52 °F 60% 30.30 in 19 mi NE 13.4 mph - -   Scattered Clouds
10:00 AM 62.6 °F 51.8 °F 68% 30.30 in 6.2 mi NE 13.8 mph - N/A   Mostly Cloudy
11:00 AM 65 °F 52 °F 53% 30.28 in 19 mi NE 11.2 mph - -   Scattered Clouds
11:00 AM 64.4 °F 53.6 °F 68% 30.30 in 6.2 mi NNE 11.5 mph - N/A   Mostly Cloudy
12:00 PM 66.2 °F 53.6 °F 64% 30.30 in 6.2 mi NNE 9.2 mph - N/A   Mostly Cloudy
1:00 PM 68.0 °F 55.4 °F 64% 30.30 in 6.2 mi ENE 6.9 mph - N/A   Mostly Cloudy
2:00 PM 68 °F 53 °F 49% 30.27 in 19 mi ESE 4.5 mph - -   Mostly Cloudy
2:00 PM 68.0 °F 55.4 °F 64% 30.30 in 6.2 mi ENE 8.1 mph - N/A   Mostly Cloudy
3:00 PM 69 °F 54 °F 50% 30.26 in 19 mi ENE 6.7 mph - -   Partly Cloudy
3:00 PM 68.0 °F 55.4 °F 64% 30.30 in 6.2 mi East 5.8 mph - N/A   Mostly Cloudy
4:00 PM 71 °F 55 °F 47% 30.24 in 19 mi NE 4.5 mph - -   Partly Cloudy
5:00 PM 71.6 °F 55.4 °F 57% 30.27 in 6.2 mi Variable 5.8 mph - N/A   Mostly Cloudy
6:00 PM 69 °F 55 °F 51% 30.24 in 19 mi NE 11.2 mph - -   Mostly Cloudy
6:00 PM 69.8 °F 55.4 °F 60% 30.27 in 6.2 mi NNE 10.4 mph - N/A   Mostly Cloudy
7:00 PM 68 °F 55 °F 53% 30.24 in 19 mi NE 8.9 mph - -   Mostly Cloudy
7:00 PM 68.0 °F 55.4 °F 64% 30.27 in 6.2 mi ENE 8.1 mph - N/A   Mostly Cloudy
8:00 PM 66.2 °F 55.4 °F 68% 30.27 in 6.2 mi NE 9.2 mph - N/A   Mostly Cloudy
9:00 PM 64 °F 54 °F 62% 30.30 in 12 mi NE 6.7 mph - -   Mostly Cloudy
10:00 PM 63 °F 54 °F 63% 30.31 in 12 mi NE 6.7 mph - -   Clear
11:00 PM 62 °F 53 °F 65% 30.30 in 12 mi North 6.7 mph - -   Clear